Tracking 25711 objects as of 22-May-2022
HD Live streaming from Space Station
objects crossing your sky now

ONEWEB-0209

Track ONEWEB-0209 now!
10-day predictions
ONEWEB-0209 is classified as:


NORAD ID: 48215
Int'l Code: 2021-031F
Perigee: 1,211.4 km
Apogee: 1,214.4 km
Inclination: 87.9 °
Period: 109.5 minutes
Semi major axis: 7583 km
RCS: Unknown
Launch date: April 25, 2021
Source: United Kingdom (UK)
Launch site: VOSTOCHNY COSMODROME (VOSTO)
aabbcc
Your satellite tracking list
Your tracking list is empty




NASA's NSSDC Master Catalog

Two Line Element Set (TLE):
1 48215U 21031F   22142.50907214  .00000098  00000-0  22985-3 0  9992
2 48215  87.9053 225.1672 0001995 107.9305 252.2042 13.14503982 53065
Source of the keplerian elements: AFSPC